Location: Unspecified
(0.0000°N, 0.0000°E)
Time: 10:57:41
(UTC+02:00)

Atlas Centaur 2 - Visible Passes

Search period start: 29 August 2016 00:00
Search period end: 08 September 2016 00:00
Orbit: 459 x 1315 km, 30.4° (Epoch: 28 August)

Date Brightness Start Highest point End Pass type
(mag) Time Alt. Az. Time Alt. Az. Time Alt. Az.
01 Sep 4.7 22:20:18 10° SSW 22:20:23 10° SSW 22:20:23 10° SSW visible
02 Sep 4.4 22:16:41 10° SW 22:18:04 16° SSW 22:18:04 16° SSW visible
03 Sep 4.2 20:25:45 10° S 20:28:59 14° SSE 20:31:55 10° SE visible
03 Sep 4.0 22:13:13 10° SW 22:15:49 23° SSW 22:15:49 23° SSW visible
04 Sep 4.1 20:21:34 10° SSW 20:26:16 18° SSE 20:30:24 10° ESE visible
04 Sep 3.5 22:09:53 10° SW 22:13:37 33° SW 22:13:37 33° SW visible
05 Sep 3.8 20:17:42 10° SSW 20:23:31 24° SSE 20:28:27 10° ESE visible
05 Sep 3.0 22:06:40 10° WSW 22:11:29 47° SW 22:11:29 47° SW visible
06 Sep 3.5 20:14:02 10° SSW 20:20:41 32° SSE 20:26:13 10° E visible
06 Sep 2.7 22:03:35 10° WSW 22:09:24 59° W 22:09:24 59° W visible
07 Sep 3.2 20:10:30 10° SW 20:17:48 42° SSE 20:23:46 10° E visible
07 Sep 2.9 22:00:37 10° WSW 22:07:17 50° NW 22:07:20 50° NNW visible
